Date,TemperatureHighF,TemperatureAvgF,TemperatureLowF,DewpointHighF,DewpointAvgF,DewpointLowF,HumidityHigh,HumidityAvg,HumidityLow,PressureMaxIn,PressureMinIn,WindSpeedMaxMPH,WindSpeedAvgMPH,GustSpeedMaxMPH,PrecipitationSumIn
2013-1-1,35.0,21.4,10.0,16.0,8.6,-5.0,69,58,39,30.34,30.23,6,1,9,0.00
2013-1-2,34.0,14.8,2.0,4.0,-3.7,-12.0,62,46,19,30.39,30.30,7,2,12,0.00
2013-1-3,32.0,23.3,14.0,19.0,10.4,0.0,69,57,46,30.43,30.29,10,2,14,0.00
2013-1-4,39.0,22.4,11.0,18.0,10.3,2.0,69,60,32,30.43,30.34,13,6,16,0.00
2013-1-5,36.0,27.0,16.0,29.0,18.9,7.0,85,71,49,30.43,30.17,10,3,16,0.00
2013-1-6,36.0,29.3,19.0,28.0,19.1,10.0,81,66,48,30.49,30.09,13,3,14,0.00
2013-1-7,45.0,25.5,14.0,21.0,13.7,6.0,79,63,22,30.52,30.30,13,4,18,0.00
2013-1-8,45.0,31.6,23.0,28.0,21.4,16.0,76,66,47,30.37,30.25,9,2,12,0.00
2013-1-9,55.0,40.0,22.0,32.0,20.7,0.0,76,51,19,30.65,30.22,12,4,17,0.00
2013-1-10,43.0,32.4,20.0,40.0,22.6,10.0,93,68,50,30.66,30.10,8,2,10,0.06
2013-1-11,54.0,50.1,43.0,52.0,46.7,41.0,96,88,74,30.11,29.88,16,4,16,0.41
2013-1-12,58.0,47.9,33.0,46.0,39.2,28.0,85,72,53,30.13,29.95,17,4,17,0.08
2013-1-13,34.0,26.8,13.0,31.0,21.8,3.0,90,81,63,30.38,30.01,5,0,13,0.14
2013-1-14,37.0,15.0,8.0,14.0,2.5,-3.0,67,58,34,30.61,30.42,0,0,0,0.02
2013-1-15,35.0,18.9,7.0,20.0,7.2,-3.0,73,61,41,30.58,30.32,0,0,0,0.00
2013-1-16,40.0,34.2,27.0,22.0,17.3,8.0,66,51,27,30.20,30.05,14,6,17,0.00
2013-1-17,40.0,27.2,14.0,25.0,7.4,-11.0,77,47,19,30.55,30.21,13,2,14,0.00
2013-1-18,45.0,27.9,11.0,22.0,13.2,-2.0,72,55,34,30.58,30.16,20,6,25,0.00
2013-1-19,52.0,41.8,35.0,32.0,26.6,-2.0,65,55,19,30.16,29.93,19,9,21,0.00
2013-1-20,35.0,18.7,12.0,8.0,-12.3,-20.0,38,25,19,30.45,30.02,11,2,21,0.00
2013-1-21,16.0,9.2,0.0,-1.0,-16.5,-31.0,57,31,19,30.43,30.29,14,4,24,0.00
2013-1-22,20.0,3.3,-6.0,-12.0,-22.9,-29.0,43,29,19,30.55,30.43,9,1,13,0.00
2013-1-23,20.0,13.7,6.0,2.0,-8.7,-21.0,51,36,19,30.50,30.27,10,3,15,0.00
2013-1-24,34.0,15.1,6.0,5.0,-4.3,-18.0,63,45,19,30.77,30.41,9,0,12,0.02
2013-1-25,27.0,20.8,15.0,13.0,6.0,-2.0,62,52,44,30.53,30.16,9,1,10,0.02
2013-1-26,51.0,24.6,14.0,15.0,2.4,-7.0,56,41,19,30.54,30.28,4,0,9,0.00
2013-1-27,34.0,25.3,19.0,30.0,16.2,7.0,86,68,55,30.54,30.14,10,2,12,0.04
2013-2-11,31.0,30.0,29.0,16.0,15.5,15.0,56,54,52,30.19,30.14,14,6,18,0.00
2013-2-12,32.0,26.4,16.0,18.0,13.6,7.0,68,58,53,30.27,30.10,12,3,12,0.00
2013-2-13,55.0,32.4,16.0,29.0,19.9,7.0,81,62,33,30.10,29.90,11,2,12,0.00
2013-2-14,42.0,35.7,29.0,30.0,23.6,13.0,76,62,42,30.13,29.86,13,3,22,0.00
2013-2-15,44.0,29.2,20.0,21.0,10.8,-14.0,70,49,19,30.32,30.13,12,2,12,0.00
2013-2-16,23.0,16.7,10.0,8.0,-7.2,-16.0,56,35,19,30.33,30.27,11,2,12,0.00
2013-2-17,39.0,19.7,6.0,3.0,-6.7,-15.0,48,32,19,30.38,30.22,9,1,13,0.00
2013-2-18,58.0,41.1,23.0,41.0,26.9,4.0,86,59,39,30.22,29.63,21,9,26,0.24
2013-2-19,33.0,17.6,11.0,28.0,3.9,-6.0,82,55,42,30.31,29.72,21,6,24,0.26
2013-2-20,36.0,17.1,5.0,9.0,-4.0,-12.0,57,41,19,30.50,30.30,6,1,12,0.00
2013-2-21,29.0,24.8,21.0,16.0,11.7,7.0,71,57,52,30.51,30.16,13,2,13,0.00
2013-2-22,34.0,27.5,21.0,29.0,19.9,14.0,82,73,58,30.16,30.01,10,3,13,0.00
2013-2-23,32.0,25.5,22.0,16.0,12.0,9.0,66,57,38,30.14,30.09,10,4,13,0.00
2013-2-24,54.0,27.9,15.0,19.0,10.6,1.0,70,52,19,30.31,30.13,6,0,8,0.10
2013-2-25,55.0,32.8,18.0,25.0,18.1,9.0,74,57,27,30.34,30.11,6,0,9,0.02
2013-2-26,34.0,32.5,32.0,28.0,24.4,18.0,85,72,52,30.11,29.65,10,2,14,0.32
2013-2-27,37.0,32.8,32.0,32.0,28.8,28.0,88,85,78,29.83,29.65,4,0,8,0.26
2013-2-28,34.0,32.0,29.0,31.0,27.4,21.0,90,83,71,30.18,29.82,13,2,18,0.28
2013-3-1,44.0,31.0,26.0,28.0,20.2,15.0,82,65,41,30.30,30.16,9,1,10,0.02
2013-3-2,32.0,26.4,23.0,18.0,13.4,8.0,64,58,50,30.31,30.27,7,1,12,0.02
2013-3-3,53.0,25.8,11.0,13.0,3.5,-11.0,65,42,19,30.29,30.23,7,0,9,0.04
2013-3-4,38.0,26.3,10.0,22.0,10.9,-3.0,73,54,32,30.30,30.17,7,1,12,0.02
2013-3-5,33.0,30.8,27.0,26.0,23.7,20.0,81,75,65,30.17,29.92,7,1,12,0.00
2013-3-6,37.0,31.4,28.0,26.0,22.9,21.0,80,70,56,30.44,30.08,12,1,13,0.04
2013-3-7,53.0,33.6,19.0,25.0,17.3,5.0,74,55,19,30.57,30.43,5,0,7,0.20
2013-3-8,57.0,32.1,16.0,23.0,13.8,4.0,76,51,19,30.65,30.49,5,0,8,0.02
2013-3-9,47.0,36.6,25.0,31.0,23.2,13.0,70,59,41,30.49,30.05,9,1,10,0.00
2013-3-10,61.0,47.3,37.0,46.0,36.8,27.0,82,67,49,30.05,29.83,9,1,9,0.40
2013-3-11,51.0,41.1,32.0,48.0,36.3,25.0,89,83,74,29.97,29.75,15,4,20,0.24
2013-3-12,43.0,32.2,26.0,26.0,20.4,15.0,78,63,37,30.17,29.97,14,6,20,0.02
2013-3-13,47.0,29.0,21.0,15.0,5.7,-13.0,66,41,19,30.48,30.17,12,2,14,0.00
2013-3-14,43.0,29.8,19.0,26.0,13.2,1.0,80,52,19,30.48,30.26,8,2,10,0.00
2013-3-15,52.0,37.4,26.0,37.0,29.1,21.0,83,73,45,30.27,29.88,6,0,7,0.02
2013-3-16,39.0,33.6,29.0,34.0,27.3,18.0,88,77,62,30.26,29.82,12,1,12,0.06
2013-3-17,43.0,32.2,28.0,22.0,16.2,13.0,64,52,35,30.35,30.17,8,2,10,0.02
2013-3-18,35.0,30.4,22.0,29.0,22.0,6.0,81,71,47,30.17,29.78,14,3,23,0.06
2013-3-19,41.0,26.3,17.0,7.0,2.6,-6.0,53,38,19,30.24,29.98,20,8,26,0.02
2013-3-20,33.0,21.8,15.0,6.0,-5.1,-16.0,50,31,19,30.24,30.18,12,4,17,0.00
2013-3-21,50.0,24.0,9.0,12.0,-2.2,-11.0,55,34,19,30.21,30.15,9,1,12,0.00
2013-3-22,56.0,29.2,14.0,16.0,5.7,-9.0,65,41,19,30.23,30.15,6,1,12,0.00
2013-3-23,56.0,33.7,21.0,22.0,14.0,0.0,70,48,19,30.29,30.16,5,0,9,0.00
2013-3-24,39.0,31.7,25.0,24.0,18.9,15.0,78,59,42,30.17,29.77,9,2,16,0.00
2013-3-25,42.0,33.5,27.0,25.0,22.2,20.0,78,64,46,30.20,29.81,13,2,15,0.16
2013-3-26,47.0,36.2,30.0,25.0,19.6,4.0,79,54,19,30.39,30.19,9,1,10,0.04
2013-3-27,50.0,36.1,25.0,24.0,14.5,3.0,71,45,19,30.47,30.38,7,0,8,0.02
2013-3-28,63.0,38.8,22.0,20.0,14.1,4.0,61,40,19,30.50,30.41,6,1,12,0.00
2013-3-29,70.0,42.6,24.0,28.0,17.5,4.0,65,41,19,30.48,30.36,5,0,8,0.00
2013-3-30,62.0,44.5,25.0,36.0,23.8,-99.9,62,47,29,30.39,30.04,9,2,13,0.00
2013-3-31,65.0,50.2,37.0,44.0,34.2,22.0,96,59,22,30.04,29.87,12,3,26,0.00
2013-4-1,53.0,36.1,21.0,24.0,12.8,-7.0,56,40,19,30.31,30.02,9,1,16,0.00
2013-4-2,54.0,32.8,19.0,15.0,4.9,-11.0,53,34,19,30.45,30.31,10,1,17,0.00
2013-4-3,58.0,33.8,16.0,25.0,10.1,-6.0,65,41,19,30.59,30.45,4,0,9,0.00
2013-4-4,69.0,42.6,21.0,25.0,14.7,0.0,67,38,19,30.49,30.14,10,1,12,0.00
2013-4-5,60.0,42.9,32.0,33.0,23.2,4.0,84,50,19,30.35,30.14,10,1,12,0.00
2013-4-6,73.0,52.7,31.0,39.0,28.1,21.0,68,43,19,30.32,29.82,17,6,23,0.00
2013-4-7,69.0,53.9,39.0,46.0,38.0,30.0,79,58,29,30.12,29.83,17,4,22,0.00
2013-4-8,79.0,56.2,43.0,55.0,43.0,34.0,96,65,32,30.14,29.86,16,4,22,0.22
2013-4-9,82.0,56.2,42.0,57.0,46.0,38.0,96,71,37,30.16,29.98,16,2,16,0.02
2013-4-10,55.0,43.0,40.0,48.0,40.6,37.0,96,92,72,30.11,29.96,7,1,12,0.02
2013-4-11,47.0,46.0,44.0,46.0,45.0,43.0,96,96,96,30.01,29.74,7,5,10,0.06
2013-4-12,47.0,39.7,36.0,46.0,33.4,28.0,96,78,66,30.04,29.77,13,6,16,0.81
2013-4-13,52.0,39.3,34.0,33.0,27.7,23.0,87,65,36,30.15,30.04,12,4,17,0.02
2013-4-14,79.0,54.0,37.0,46.0,38.0,30.0,80,58,30,30.17,29.90,10,2,16,0.00
2013-4-15,71.0,57.7,45.0,56.0,49.0,41.0,96,74,50,30.13,29.91,15,4,17,0.78
2013-4-16,60.0,48.1,42.0,45.0,38.5,33.0,96,72,39,30.40,30.11,7,0,10,0.98
2013-4-17,56.0,48.3,43.0,49.0,41.5,33.0,96,78,62,30.41,30.00,9,1,13,0.89
2013-4-18,69.0,58.3,45.0,64.0,56.2,40.0,96,93,78,29.99,29.67,17,5,20,1.05
2013-4-19,45.0,37.7,33.0,40.0,28.2,25.0,83,69,60,30.08,29.72,20,9,26,0.39
2013-4-20,58.0,39.1,29.0,28.0,17.9,3.0,82,47,19,30.59,30.08,12,2,13,0.00
2013-4-21,64.0,42.8,25.0,28.0,20.2,14.0,67,44,19,30.69,30.51,9,2,17,0.00
2013-4-22,77.0,53.9,35.0,36.0,30.6,26.0,80,46,19,30.51,30.24,9,1,12,0.00
2013-4-23,68.0,52.6,37.0,52.0,42.6,34.0,96,71,46,30.24,30.03,13,2,15,0.08
2013-4-24,61.0,42.3,36.0,36.0,30.4,22.0,96,67,25,30.32,30.06,9,2,13,0.06
2013-4-25,61.0,44.3,32.0,35.0,27.5,20.0,78,55,22,30.50,30.25,10,3,13,0.02
2013-4-26,74.0,51.3,32.0,41.0,34.3,24.0,79,56,28,30.54,30.43,13,3,14,0.00
2013-4-27,79.0,56.5,38.0,62.0,39.2,29.0,96,61,19,30.47,30.17,8,1,10,0.00
2013-4-28,77.0,58.6,48.0,54.0,49.5,45.0,92,75,38,30.17,29.99,4,0,6,0.04
2013-4-29,80.0,61.7,46.0,54.0,48.5,44.0,96,67,33,30.11,30.00,12,2,12,0.02
2013-4-30,92.0,71.3,57.0,56.0,52.3,48.0,78,55,24,30.14,30.02,10,3,13,0.00
2013-5-1,94.0,73.3,57.0,57.0,52.0,46.0,91,54,21,30.31,30.14,8,1,9,0.00
2013-5-2,64.0,52.5,40.0,53.0,42.2,36.0,88,69,44,30.36,30.27,10,2,15,0.00
2013-5-3,64.0,49.3,40.0,52.0,43.9,37.0,96,83,53,30.27,30.10,7,0,12,0.02
2013-5-4,85.0,65.6,54.0,57.0,45.6,35.0,96,54,19,30.19,30.10,6,0,8,0.04
2013-5-5,82.0,61.3,45.0,50.0,43.0,36.0,90,56,19,30.19,30.11,8,1,9,0.00
2013-5-6,83.0,60.4,47.0,49.0,41.4,32.0,83,54,19,30.19,30.12,6,0,9,0.00
2013-5-7,82.0,62.0,46.0,50.0,42.7,38.0,76,52,28,30.21,30.14,6,0,8,0.00
2013-5-8,92.0,68.0,51.0,54.0,45.3,40.0,77,49,19,30.20,30.13,3,0,7,0.00
2013-5-9,81.0,64.0,52.0,58.0,51.3,44.0,94,67,32,30.14,29.99,7,1,12,0.34
2013-5-10,61.0,48.8,40.0,60.0,45.5,-99.9,96,93,81,30.13,29.94,12,2,14,0.43
2013-5-11,67.0,48.5,36.0,50.0,39.3,-99.9,96,75,40,30.19,30.00,9,1,16,0.08
2013-5-12,65.0,45.6,35.0,31.0,26.5,21.0,72,50,20,30.27,30.19,6,1,13,0.00
2013-5-13,76.0,52.0,30.0,36.0,27.4,18.0,83,45,19,30.34,30.22,6,0,10,0.00
2013-5-14,98.0,70.7,50.0,56.0,43.1,29.0,53,39,19,30.22,29.86,11,3,17,0.00
2013-5-15,95.0,74.8,59.0,57.0,49.9,42.0,69,45,19,30.00,29.84,10,2,12,0.02
2013-5-16,96.0,63.2,53.0,53.0,27.9,-99.9,88,49,19,30.14,29.99,1,0,6,0.02
2013-5-17,93.0,67.3,57.0,63.0,47.0,-99.9,87,57,26,30.21,30.12,7,0,12,0.00
2013-5-18,90.0,70.1,58.0,61.0,55.9,47.0,96,64,33,30.24,30.13,6,0,8,0.16
2013-5-19,95.0,75.7,60.0,64.0,59.3,57.0,91,61,29,30.14,29.97,7,1,8,0.16
2013-5-20,93.0,79.9,69.0,67.0,60.6,52.0,88,56,26,30.01,29.92,12,2,18,0.00
2013-5-21,87.0,72.4,63.0,64.0,61.5,58.0,96,71,41,29.99,29.87,12,3,16,0.86
2013-5-22,80.0,70.3,62.0,66.0,59.4,49.0,91,70,41,29.93,29.83,10,2,12,0.10
2013-5-23,61.0,49.3,39.0,55.0,44.7,33.0,96,85,62,30.41,29.93,18,2,20,0.10
2013-5-24,71.0,48.9,37.0,42.0,34.7,28.0,92,62,24,30.57,30.41,3,0,9,0.02
2013-5-25,69.0,49.4,34.0,46.0,39.2,28.0,92,70,41,30.56,30.43,0,0,0,0.00
2013-5-26,74.0,57.6,41.0,53.0,44.4,36.0,92,65,32,30.47,30.30,7,0,7,0.02
2013-5-27,68.0,58.7,54.0,61.0,55.5,52.0,96,89,65,30.31,30.04,3,0,7,0.50
2013-5-28,83.0,70.2,62.0,66.0,63.4,59.0,96,80,51,30.09,29.96,17,2,17,0.77
2013-5-29,91.0,74.8,63.0,68.0,62.7,58.0,96,69,37,30.14,30.02,9,2,13,0.51
2013-5-30,91.0,77.3,67.0,66.0,62.9,58.0,79,62,39,30.15,30.04,16,3,18,0.04
2013-5-31,81.0,71.2,65.0,67.0,63.0,58.0,96,76,58,30.11,29.94,9,1,13,0.16
2013-6-1,81.0,70.1,60.0,66.0,60.6,56.0,96,73,50,30.00,29.88,10,2,12,0.20
2013-6-2,66.0,56.5,40.0,61.0,49.2,36.0,96,78,48,30.22,29.92,3,0,8,0.06
2013-6-3,82.0,57.0,39.0,51.0,41.2,35.0,96,62,23,30.29,30.21,1,0,3,0.00
2013-6-4,86.0,62.3,43.0,49.0,43.4,39.0,90,56,22,30.33,30.25,0,0,2,0.00
2013-6-5,89.0,69.0,55.0,53.0,47.4,44.0,76,50,22,30.27,30.08,2,0,6,0.00
2013-6-6,79.0,63.1,53.0,59.0,47.5,41.0,81,58,37,30.09,30.02,6,0,8,0.02
2013-6-7,77.0,61.0,53.0,55.0,47.5,37.0,92,64,36,30.11,30.04,5,0,8,0.02
2013-6-8,86.0,64.1,49.0,55.0,46.9,39.0,88,57,28,30.17,30.08,0,0,3,0.00
2013-6-9,90.0,72.5,58.0,61.0,52.7,46.0,80,53,28,30.18,29.99,6,0,8,0.00
2013-6-10,86.0,70.3,61.0,66.0,62.2,58.0,96,77,44,30.04,29.92,2,0,6,0.36
2013-6-11,91.0,71.5,57.0,65.0,60.4,54.0,96,73,32,30.11,30.00,6,0,10,0.14
2013-6-12,95.0,75.0,65.0,72.0,67.5,64.0,96,80,40,30.08,29.80,26,1,31,1.53
2013-6-13,74.0,64.1,55.0,65.0,55.5,50.0,96,76,48,30.21,29.81,9,0,12,1.57
2013-6-14,82.0,60.8,53.0,59.0,52.9,50.0,96,78,37,30.27,30.18,1,0,6,0.02
2013-6-15,80.0,68.8,56.0,66.0,61.2,53.0,96,78,54,30.22,30.07,0,0,0,0.14
2013-6-16,87.0,74.0,66.0,68.0,63.4,61.0,89,71,45,30.11,30.04,5,0,6,0.10
2013-6-17,93.0,76.9,62.0,69.0,58.1,48.0,96,59,22,30.13,30.03,0,0,0,0.00
2013-6-18,76.0,63.8,56.0,61.0,55.2,51.0,96,75,47,30.21,30.07,0,0,0,0.00
2013-6-19,84.0,64.5,54.0,53.0,48.8,45.0,88,59,28,30.31,30.21,0,0,0,0.00
2013-6-20,88.0,66.3,59.0,62.0,51.1,46.0,67,59,40,30.34,30.28,0,0,0,0.00
2013-6-22,90.0,80.9,69.0,71.0,67.1,62.0,79,63,52,30.27,30.16,0,0,0,0.53
2013-6-23,91.0,74.9,64.0,69.0,64.7,61.0,96,73,44,30.24,30.14,3,0,6,0.00
2013-6-24,90.0,73.4,67.0,70.0,65.2,63.0,93,77,44,30.27,30.10,3,0,6,0.30
2013-6-25,94.0,76.7,68.0,72.0,67.5,64.0,91,75,43,30.16,30.01,7,1,9,0.30
2013-6-26,87.0,72.9,65.0,74.0,66.7,64.0,96,82,54,30.08,29.91,11,1,14,0.65
2013-6-27,96.0,73.4,65.0,70.0,65.6,61.0,96,80,32,29.98,29.88,5,0,8,0.10
2013-6-28,90.0,73.0,65.0,67.0,62.6,56.0,96,73,35,29.89,29.78,4,0,6,1.16
2013-6-29,77.0,66.8,64.0,65.0,62.2,60.0,96,86,57,29.92,29.77,5,1,7,0.32
2013-6-30,76.0,68.3,64.0,63.0,58.4,54.0,92,72,50,30.13,29.92,6,0,9,0.00
2013-7-1,79.0,65.8,55.0,59.0,51.2,44.0,90,62,38,30.21,30.11,6,1,9,0.00
2013-7-2,67.0,62.7,61.0,60.0,55.7,49.0,93,79,54,30.22,30.18,2,0,6,0.10
2013-7-3,77.0,66.8,60.0,68.0,61.4,56.0,96,84,63,30.26,30.17,5,0,6,0.28
2013-7-4,85.0,67.3,56.0,66.0,59.0,55.0,96,78,43,30.30,30.23,6,0,6,0.14
2013-7-5,87.0,68.1,58.0,66.0,60.7,56.0,96,79,46,30.28,30.21,4,0,6,0.00
2013-7-6,86.0,73.0,67.0,69.0,65.6,63.0,96,79,50,30.26,30.17,2,0,6,0.00
2013-7-7,91.0,75.5,67.0,69.0,66.5,62.0,94,76,42,30.23,30.16,6,1,7,0.00
2013-7-8,91.0,74.1,69.0,71.0,66.3,-99.9,93,80,47,30.29,30.14,6,2,8,0.98
2013-7-9,88.0,79.3,73.0,75.0,71.9,68.0,96,79,57,30.19,30.08,2,2,2,0.02
2013-7-10,87.0,74.5,59.0,76.0,63.6,-99.9,96,73,44,30.19,30.03,2,1,2,0.18
2013-7-11,84.0,65.0,57.0,63.0,55.7,49.0,96,75,30,30.27,30.18,0,0,0,0.08
2013-7-12,88.0,64.6,54.0,66.0,57.0,52.0,96,79,33,30.32,30.25,0,0,0,0.00
2013-7-13,89.0,69.0,58.0,62.0,59.3,54.0,96,74,37,30.34,30.28,0,0,0,0.00
2013-7-26,75.0,68.1,66.0,63.0,60.4,55.0,88,77,51,30.14,30.06,9,2,10,0.00
2013-7-27,74.0,64.4,54.0,64.0,53.5,42.0,96,70,37,30.09,30.03,7,1,10,0.00
2013-7-28,74.0,58.4,49.0,54.0,46.9,41.0,90,68,31,30.20,30.06,9,1,10,0.04
2013-7-29,81.0,62.8,53.0,55.0,50.9,47.0,87,67,36,30.35,30.19,5,0,13,0.02
2013-7-30,77.0,66.3,55.0,61.0,56.8,52.0,96,73,51,30.36,30.25,4,0,6,0.00
2013-7-31,75.0,67.8,61.0,68.0,63.2,57.0,96,85,71,30.25,30.14,2,0,3,0.14
2013-8-1,88.0,66.9,56.0,66.0,57.6,48.0,96,76,27,30.16,30.11,3,0,5,0.12
2013-8-2,90.0,66.1,56.0,67.0,60.7,52.0,96,84,40,30.15,30.01,7,1,8,1.71
2013-8-3,81.0,68.8,56.0,71.0,60.9,47.0,96,79,30,30.28,30.12,5,0,6,0.75
2013-8-4,78.0,62.7,55.0,62.0,54.4,51.0,96,77,40,30.36,30.28,2,0,2,0.00
2013-8-5,79.0,65.2,56.0,67.0,56.3,51.0,90,74,51,30.31,30.09,6,1,8,0.00
2013-8-6,87.0,70.3,62.0,67.0,63.7,59.0,96,81,50,30.11,30.04,4,1,8,0.00
2013-8-7,93.0,76.0,67.0,72.0,68.8,63.0,96,80,49,30.12,30.01,6,1,8,0.14
2013-8-8,82.0,68.0,63.0,66.0,61.1,54.0,96,80,45,30.19,30.12,5,0,5,0.08
2013-8-9,89.0,70.6,58.0,64.0,58.9,54.0,96,70,32,30.20,30.14,4,0,6,0.00
2013-8-10,84.0,69.3,60.0,69.0,60.5,51.0,96,76,36,30.30,30.21,3,0,5,0.00
2013-8-11,90.0,67.5,56.0,61.0,56.2,52.0,90,70,28,30.31,30.21,2,0,5,0.00
2013-8-21,95.0,73.6,62.0,70.0,62.1,58.0,96,72,29,30.30,30.17,5,0,6,0.00
2013-8-22,75.0,70.8,64.0,70.0,65.1,61.0,92,82,67,30.31,30.18,5,1,6,0.02
2013-8-23,85.0,66.6,60.0,69.0,60.1,51.0,96,82,31,30.35,30.27,0,0,1,0.02
2013-8-24,87.0,64.0,58.0,58.0,50.0,-99.9,80,66,27,30.44,30.35,2,0,3,0.00
2013-8-25,89.0,70.1,57.0,61.0,57.2,52.0,89,67,34,30.44,30.34,7,1,7,0.00
2013-8-26,94.0,76.8,64.0,68.0,63.5,58.0,88,66,37,30.36,30.21,7,1,8,0.00
2013-8-27,94.0,77.0,72.0,70.0,68.3,67.0,86,76,45,30.21,30.16,6,1,7,0.00
2013-9-5,74.0,62.2,56.0,62.0,54.1,45.0,92,76,38,30.39,30.28,0,0,5,0.00
2013-9-6,85.0,63.8,55.0,62.0,53.1,45.0,84,69,42,30.40,30.22,5,0,6,0.00
2013-9-7,90.0,69.4,60.0,67.0,57.6,-99.9,96,73,31,30.22,30.08,5,0,6,0.00
2013-9-8,85.0,71.3,65.0,67.0,63.6,61.0,92,78,48,30.18,30.11,3,0,6,0.00
2013-9-9,101.0,75.8,64.0,69.0,65.3,61.0,96,73,33,30.17,30.04,7,1,8,0.00
2013-9-10,102.0,80.9,71.0,68.0,63.4,57.0,85,59,23,30.22,30.09,6,2,9,0.00
2013-9-11,84.0,76.1,72.0,68.0,67.0,65.0,84,74,57,30.24,30.21,4,1,6,0.00
2013-9-12,87.0,70.5,63.0,67.0,56.5,52.0,91,64,31,30.22,30.09,3,1,8,0.00
2013-9-13,68.0,57.3,44.0,51.0,45.4,39.0,85,65,36,30.31,30.22,2,0,6,0.00
2013-9-14,72.0,47.3,40.0,50.0,35.9,-99.9,92,73,26,30.36,30.22,2,0,6,0.00
2013-9-15,69.0,55.8,47.0,56.0,48.3,38.0,96,77,52,30.29,30.15,0,0,2,0.02
2013-9-16,65.0,55.7,51.0,57.0,51.5,46.0,96,87,53,30.50,30.30,1,0,2,0.02
2013-9-17,77.0,55.6,45.0,51.0,47.0,44.0,96,76,36,30.50,30.30,3,0,6,0.00
2013-10-2,84.0,68.6,60.0,66.0,59.0,52.0,96,74,37,30.27,30.16,2,0,5,0.00
2013-10-3,80.0,67.3,60.0,73.0,63.8,56.0,96,89,61,30.17,30.05,5,0,6,0.88
2013-10-4,88.0,70.1,62.0,68.0,65.0,61.0,96,85,47,30.18,30.11,4,1,6,0.02
2013-10-5,85.0,70.3,66.0,71.0,65.9,63.0,96,87,54,30.16,30.00,4,1,8,0.37
2013-10-6,67.0,55.7,42.0,66.0,49.4,37.0,96,81,41,29.98,29.88,9,2,9,0.29
2013-10-7,69.0,49.7,43.0,47.0,42.6,40.0,96,78,38,30.27,29.95,2,0,5,0.02
2013-10-8,79.0,53.9,42.0,53.0,43.8,39.0,96,73,28,30.37,30.27,2,0,5,0.00
2013-10-9,54.0,48.6,43.0,51.0,43.0,40.0,92,82,72,30.42,30.33,1,0,1,0.00
2013-11-3,40.0,39.9,39.0,35.0,34.9,34.0,84,82,80,30.45,30.43,2,0,6,0.02
2013-11-4,60.0,48.6,39.0,42.0,37.7,34.0,85,67,40,30.48,30.32,7,2,14,0.00
2013-11-5,57.0,53.4,50.0,50.0,44.5,42.0,89,72,65,30.45,30.19,9,2,13,0.00
2013-11-9,63.0,50.1,42.0,38.0,32.6,-99.9,65,53,34,30.22,30.07,16,7,20,0.00
2013-11-10,48.0,38.1,32.0,32.0,25.5,21.0,72,61,45,30.48,30.26,9,2,9,0.00
2013-11-11,48.0,38.2,29.0,37.0,30.3,22.0,92,74,57,30.55,30.27,7,2,10,0.18
2013-11-12,38.0,27.1,19.0,26.0,18.1,9.0,81,69,35,30.79,30.58,4,0,9,0.08
2013-11-13,43.0,26.3,15.0,19.0,13.5,8.0,77,60,31,30.75,30.38,12,4,15,0.02
2013-11-14,55.0,36.2,28.0,24.0,19.5,15.0,60,51,28,30.38,30.15,14,6,16,0.00
2013-11-15,52.0,42.2,34.0,35.0,28.1,22.0,73,58,41,30.19,30.14,10,3,13,0.00
2013-12-7,24.0,15.9,11.0,4.0,-5.1,-99.9,58,48,41,30.82,30.71,5,2,9,0.00
2013-12-8,25.0,20.7,12.0,20.0,11.6,3.0,83,68,55,30.67,30.10,6,2,7,0.00
2013-12-9,25.0,21.9,19.0,21.0,13.3,5.0,84,70,45,30.32,30.10,10,5,13,0.00
2013-12-10,24.0,14.0,2.0,3.0,-2.9,-10.0,57,47,40,30.25,30.22,14,9,18,0.00
2013-12-11,27.0,19.0,14.0,11.0,7.8,-2.0,71,61,42,30.53,30.44,6,1,8,0.00
2013-12-12,24.0,9.0,-1.0,4.0,-4.3,-14.0,63,55,35,30.61,30.41,9,4,12,0.00
2013-12-13,33.0,22.8,11.0,22.0,11.7,2.0,83,63,37,30.37,30.26,4,1,6,0.00
2013-12-14,32.0,26.1,24.0,23.0,19.3,-99.9,85,78,66,30.26,30.01,5,2,10,0.00
2013-12-15,25.0,16.0,8.0,18.0,6.3,-3.0,75,66,47,30.27,30.09,12,4,12,0.00
2013-12-16,24.0,18.4,9.0,12.0,5.5,-2.0,76,58,43,30.32,30.17,5,0,6,0.00
2013-12-17,35.0,22.1,15.0,21.0,13.9,9.0,79,71,55,30.24,30.12,12,3,13,0.00
2013-12-18,36.0,25.4,11.0,24.0,11.7,2.0,67,56,45,30.35,30.04,13,5,15,0.00
2013-12-19,47.0,37.9,32.0,35.0,30.2,25.0,88,74,57,30.11,29.96,7,2,10,0.04
2013-12-21,36.0,33.2,33.0,35.0,30.0,-99.9,96,93,94,29.99,29.75,2,0,5,0.40
2013-12-22,35.0,31.5,26.0,33.0,28.6,19.0,96,89,76,30.25,29.70,5,1,8,0.06
2013-12-23,26.0,22.2,18.0,19.0,14.5,9.0,76,72,64,30.50,30.26,9,3,12,0.02
2013-12-24,16.0,12.0,2.0,4.0,-1.2,-11.0,59,55,49,30.71,30.57,5,1,7,0.00
2013-12-25,26.0,23.6,16.0,21.0,14.7,4.0,81,68,53,30.57,30.27,6,4,9,0.30
2013-12-26,34.0,27.5,14.0,23.0,16.3,4.0,78,62,48,30.48,30.27,10,4,14,0.30
2013-12-27,47.0,34.4,24.0,29.0,24.9,17.0,80,68,47,30.46,30.29,11,4,13,0.00
2013-12-28,54.0,38.3,32.0,32.0,26.2,-99.9,76,64,43,30.29,30.03,10,5,13,0.00